Regional Weather Roundup
Issued by NWS

Home | Current Version | Previous Version | Graphics & Text | Print | Product List | Glossary On
Versions: 1 2 3 4 5 6 7 8 9 10 11 12 13 14 15 16 17 18 19 20 21 22 23 24 25 26 27 28 29 30 31 32 33 34 35 36 37 38 39 40 41 42 43 44 45 46 47 48 49 50
811
ASUS43 KFSD 272210
RWRSD

WEATHER ROUNDUP FOR SOUTH DAKOTA
NATIONAL WEATHER SERVICE SIOUX FALLS SD
500 PM CDT SAT MAY 27 2017

NOTE: "FAIR" INDICATES FEW OR NO CLOUDS BELOW 12,000 FEET WITH NO
SIGNIFICANT WEATHER AND/OR OBSTRUCTIONS TO VISIBILITY.


SDZ001>005-009-010-012>017-272300-
NORTHWEST AND NORTH CENTRAL SOUTH DAKOTA

CITY           SKY/WX    TMP DP  RH WIND       PRES   REMARKS
BUFFALO          N/A     72  37  28 NW21      29.88S
FAITH            N/A     66  42  41 W7        29.91F
MOBRIDGE       CLOUDY    74  40  29 W9        29.83F
$$

SDZ012>016-024>037-041>051-057-063-072>074-272300-
SOUTHWEST AND SOUTH CENTRAL SOUTH DAKOTA

CITY           SKY/WX    TMP DP  RH WIND       PRES   REMARKS
RAPID CTY ARPT MOSUNNY   72  35  25 NW16G29   29.99F
PIERRE         MOSUNNY   76  34  21 NW14G20   29.87F
CUSTER         MOSUNNY   58  30  34 W12       30.09S
ELLSWORTH AFB  MOSUNNY   70  34  25 NW16G25   29.98S
PHILIP         MOSUNNY   74  36  25 NW16G22   29.92F
PINE RIDGE     SUNNY     66  44  45 W9        30.04S
SPEARFISH      FAIR      66  36  32 NW20      30.03F
WINNER         MOCLDY    69  48  47 N8        29.94F
$$

SDZ004>011-016>023-039-040-272300-
NORTHEAST SOUTH DAKOTA

CITY           SKY/WX    TMP DP  RH WIND       PRES   REMARKS
ABERDEEN       MOSUNNY   79  33  19 W18G24    29.81F
WATERTOWN      CLOUDY    70  42  36 SW13      29.87F
BROOKINGS      PTSUNNY   67  47  48 W14       29.90S
SISSETON         N/A     72  42  34 SW13G18   29.81F
$$

SDZ017-020-022-023-036>040-048>070-272300-
SOUTHEAST SOUTH DAKOTA

CITY           SKY/WX    TMP DP  RH WIND       PRES   REMARKS
SIOUX FALLS    CLOUDY    67  52  58 NW12      29.91F
HURON          MOSUNNY   72  45  37 SW12G18   29.88F
CHAMBERLAIN    SUNNY     73  50  44 SW12      29.92F
MITCHELL       CLOUDY    68  47  46 W9        29.91F
YANKTON        CLOUDY    64  53  67 NW10      29.94F
$$

ABBREVIATIONS USED IN REMARKS
   TC - TEMPERATURE IN CELSIUS
  WCI - WIND CHILL INDEX
   HX - HEAT INDEX
  VSB - VISIBILITY





USA.gov is the U.S. government's official web portal to all federal, state and local government web resources and services.